Location: *
(28.3744°N, 81.5492°W)
Time: 03:40:15
(UTC+00:00)

COSMOS 2428 - Pass Details

Date: 15 June 2025
Orbit: 845 x 853 km, 70.9° (Epoch: 11 July)

Event Time Altitude Azimuth Distance (km) Brightness Sun altitude
Rises 02:04:20 0° 339° (NNW) 3,422 6.9 -19.0°
Reaches altitude 10° 02:06:47 10° 339° (NNW) 2,483 6.1 -19.4°
Maximum altitude 02:12:30 84° 252° (WSW) 860 2.7 -20.3°
Enters shadow 02:15:04 35° 167° (SSE) 1,353 3.3 -20.7°
